Visibility
7.7 7.6 6.1 14.9 6.0 6.0 6.3 15.0 7.1 15.0 15.0 0.1 0.7 0.1 15.0 6.0 5.7 5.3 5.0 8.2 9.3 10.1 15.0 15.0 15.0 15.0 15.0 15.0 15.0 15.0 5.3 5.3 0.0 0.4 15.0 15.0 15.0 15.0 15.0 15.0 15.0 15.0 15.0 15.0
5.0 7.1 7.8 13.1 10.7 9.0 15.0 14.8 2.3 8.0 14.9 0.1 0.1 15.0 15.0 5.2 4.9 5.1 6.5 0.1 5.9 15.0 15.0 15.0 15.0 15.0 15.0 15.0 15.0 15.0 15.0 14.6 0.0 0.1 11.8 12.7 15.0 15.0 15.0 15.0 15.0 15.0 15.0 15.0
11.5 4.2 13.9 14.2 11.3 5.5 15.0 15.0 0.1 0.0 0.1 15.0 0.6 15.0 0.1 0.1 5.9 5.1 6.7 8.3 12.7 15.0 15.0 15.0 15.0 15.0 15.0 15.0 15.0 15.0 14.2 15.0 15.0 10.8 15.0 15.0 15.0 15.0 15.0 15.0 15.0 15.0 15.0 15.0
6.4 12.9 11.1 14.9 14.3 10.0 15.0 12.1 14.5 12.6 0.3 4.1 13.3 1.8 4.7 0.8 0.1 5.3 11.5 5.8 15.0 15.0 15.0 15.0 15.0 15.0 15.0 15.0 15.0 15.0 15.0 15.0 15.0 15.0 15.0 15.0 15.0 15.0 15.0 15.0 15.0 15.0 15.0 15.0
7.7 2.6 8.5 15.0 13.0 11.2 3.4 9.0 15.0 15.0 15.0 15.0 15.0 11.1 0.5 0.2 0.9 7.0 0.8 14.7 15.0 15.0 15.0 15.0 15.0 15.0 15.0 15.0 15.0 15.0 15.0 15.0 15.0 15.0 15.0 15.0 15.0 15.0 15.0 15.0 15.0 15.0 15.0 15.0
5.7 4.6 11.7 15.0 14.9 11.8 4.5 14.5 15.0 15.0 15.0 15.0 10.0 15.0 15.0 5.1 5.6 7.6 15.0 14.8 15.0 15.0 15.0 15.0 15.0 15.0 15.0 15.0 15.0 15.0 15.0 15.0 15.0 15.0 15.0 15.0 15.0 15.0 15.0 15.0 15.0 15.0 15.0 15.0
9.4 11.2 6.0 11.9 15.0 15.0 15.0 15.0 15.0 12.0 15.0 15.0 15.0 15.0 15.0 4.5 5.8 8.3 13.3 15.0 15.0 15.0 15.0 15.0 15.0 15.0 15.0 15.0 15.0 15.0 15.0 15.0 15.0 15.0 15.0 15.0 15.0 15.0 15.0 15.0 15.0 15.0 15.0 15.0
3.6 4.7 4.9 7.4 14.0 15.0 15.0 15.0 15.0 15.0 15.0 15.0 15.0 15.0 8.1 6.3 7.5 15.0 15.0 15.0 15.0 15.0 7.1 13.9 11.8 15.0 15.0 15.0 15.0 15.0 15.0 15.0 15.0 15.0 15.0 15.0 15.0 15.0 15.0 15.0 15.0 15.0 15.0 15.0
9.6 14.1 15.0 15.0 15.0 15.0 14.3 15.0 9.2 10.9 15.0 15.0 15.0 15.0 15.0 6.0 6.3 14.7 15.0 15.0 15.0 15.0 2.0 15.0 0.5 0.0 0.2 0.1 15.0 15.0 15.0 15.0 9.0 13.6 14.8 13.5 15.0 15.0 15.0 15.0 15.0 15.0 15.0 15.0
5.2 3.5 12.6 15.0 15.0 13.6 15.0 15.0 8.0 7.3 15.0 15.0 15.0 15.0 12.7 15.0 6.2 5.6 15.0 15.0 15.0 15.0 15.0 6.3 12.8 0.2 5.5 0.0 0.1 15.0 14.1 11.9 12.9 14.6 7.2 15.0 15.0 15.0 15.0 15.0 15.0 15.0 15.0 15.0
9.9 5.6 6.5 15.0 15.0 14.6 15.0 9.6 8.4 9.1 15.0 15.0 15.0 15.0 15.0 15.0 14.4 12.0 12.6 12.0 11.4 15.0 15.0 15.0 15.0 15.0 15.0 12.7 15.0 15.0 6.9 0.4 0.0 11.6 0.0 5.7 15.0 15.0 15.0 15.0 15.0 15.0 15.0 15.0
10.1 11.2 8.6 15.0 15.0 15.0 15.0 1.1 11.9 13.0 15.0 15.0 15.0 15.0 15.0 15.0 15.0 9.0 15.0 14.3 15.0 15.0 15.0 15.0 15.0 15.0 15.0 15.0 15.0 15.0 8.3 15.0 15.0 13.4 14.6 15.0 15.0 15.0 15.0 15.0 15.0 15.0 15.0 15.0
5.4 7.8 15.0 7.6 14.6 15.0 15.0 3.5 5.5 15.0 15.0 15.0 15.0 15.0 15.0 15.0 15.0 11.8 6.8 11.4 5.7 11.6 15.0 9.1 15.0 15.0 15.0 15.0 15.0 15.0 15.0 15.0 15.0 15.0 15.0 15.0 15.0 15.0 15.0 15.0 15.0 15.0 15.0 15.0
9.7 14.9 15.0 11.0 15.0 15.0 12.8 13.9 4.5 15.0 15.0 15.0 15.0 15.0 15.0 15.0 15.0 15.0 14.8 6.0 15.0 13.8 11.4 9.5 7.3 15.0 15.0 15.0 15.0 15.0 15.0 15.0 15.0 15.0 15.0 15.0 15.0 15.0 15.0 15.0 15.0 15.0 15.0 15.0
15.0 15.0 13.5 9.9 15.0 15.0 12.9 15.0 4.8 14.5 15.0 15.0 15.0 15.0 15.0 15.0 15.0 15.0 15.0 15.0 15.0 15.0 15.0 15.0 15.0 15.0 15.0 15.0 15.0 15.0 15.0 15.0 15.0 15.0 15.0 15.0 15.0 15.0 15.0 15.0 15.0 15.0 15.0 15.0
11.8 11.1 15.0 14.9 15.0 15.0 15.0 0.1 0.2 6.0 15.0 15.0 15.0 15.0 15.0 15.0 15.0 15.0 15.0 15.0 15.0 15.0 15.0 15.0 15.0 15.0 15.0 15.0 15.0 15.0 15.0 15.0 15.0 15.0 15.0 15.0 15.0 15.0 15.0 15.0 15.0 15.0 15.0 15.0
7.9 15.0 12.3 15.0 15.0 15.0 3.7 15.0 2.4 6.1 9.5 14.3 0.0 11.6 15.0 15.0 15.0 15.0 15.0 15.0 15.0 15.0 15.0 15.0 15.0 15.0 15.0 15.0 15.0 15.0 15.0 15.0 15.0 15.0 15.0 15.0 15.0 15.0 15.0 15.0 15.0 15.0 15.0 15.0
6.4 7.1 11.9 15.0 15.0 15.0 14.3 15.0 14.6 5.2 7.6 9.1 0.0 0.1 1.0 15.0 15.0 15.0 15.0 15.0 15.0 15.0 15.0 15.0 15.0 15.0 15.0 7.6 15.0 15.0 15.0 15.0 15.0 15.0 15.0 15.0 15.0 15.0 15.0 15.0 15.0 15.0 15.0 15.0
4.5 14.9 14.6 14.7 15.0 15.0 2.3 14.7 15.0 15.0 4.5 0.2 0.1 0.0 0.0 15.0 11.8 15.0 15.0 15.0 1.7 15.0 15.0 15.0 15.0 15.0 0.1 11.6 15.0 15.0 15.0 15.0 15.0 15.0 15.0 15.0 15.0 15.0 15.0 15.0 15.0 15.0 15.0 15.0
4.6 13.9 12.5 0.1 6.7 15.0 12.8 15.0 15.0 14.6 15.0 15.0 15.0 15.0 0.0 14.8 9.8 1.0 14.1 0.2 0.0 0.0 2.1 14.8 7.4 0.6 15.0 15.0 15.0 15.0 15.0 15.0 15.0 0.8 0.1 0.2 0.1 0.3 7.7 15.0 15.0 15.0 15.0 15.0
4.4 5.1 0.1 0.1 14.2 15.0 15.0 0.1 5.5 11.5 0.0 15.0 15.0 15.0 0.4 12.0 9.5 4.9 5.8 0.1 0.2 0.0 1.8 0.6 11.6 14.6 15.0 15.0 15.0 15.0 15.0 15.0 15.0 15.0 15.0 15.0 15.0 15.0 15.0 15.0 15.0 15.0 15.0 15.0
7.0 4.2 8.8 15.0 15.0 4.7 2.2 0.0 0.3 9.5 0.2 15.0 15.0 15.0 15.0 15.0 15.0 15.0 1.7 1.1 2.8 0.6 15.0 0.1 10.6 15.0 15.0 15.0 15.0 15.0 15.0 15.0 15.0 15.0 15.0 15.0 15.0 15.0 15.0 15.0 15.0 15.0 15.0 15.0
6.6 2.6 0.1 0.8 0.1 0.1 0.6 0.1 1.3 15.0 15.0 0.0 0.1 0.1 0.2 15.0 15.0 5.0 2.4 0.1 7.7 14.7 13.1 12.7 15.0 15.0 15.0 15.0 15.0 15.0 15.0 15.0 15.0 15.0 15.0 15.0 15.0 15.0 15.0 15.0 15.0 15.0 15.0 15.0
0.2 0.0 0.0 0.1 0.0 0.4 13.3 15.0 0.2 13.4 0.1 0.1 3.6 0.3 15.0 15.0 0.2 12.3 1.8 15.0 15.0 14.7 14.6 15.0 15.0 15.0 15.0 15.0 15.0 15.0 15.0 15.0 15.0 15.0 15.0 15.0 15.0 15.0 15.0 15.0 15.0 15.0 15.0 15.0
0.0 0.0 0.0 0.0 0.6 5.8 15.0 8.2 1.3 0.1 14.3 15.0 9.9 9.4 15.0 15.0 5.8 7.7 14.9 0.4 12.4 15.0 15.0 15.0 15.0 15.0 15.0 15.0 15.0 15.0 15.0 15.0 15.0 15.0 15.0 15.0 15.0 15.0 15.0 15.0 15.0 15.0 15.0 15.0
0.0 0.0 1.2 5.5 0.4 0.1 15.0 0.6 0.0 0.1 15.0 15.0 10.9 0.2 8.4 3.2 15.0 15.0 15.0 15.0 15.0 15.0 15.0 15.0 15.0 15.0 15.0 15.0 15.0 15.0 15.0 15.0 15.0 15.0 15.0 15.0 15.0 15.0 15.0 15.0 15.0 15.0 15.0 15.0
0.0 0.1 14.3 15.0 15.0 7.0 13.9 14.6 0.2 15.0 15.0 0.1 6.4 0.7 14.3 15.0 1.8 15.0 15.0 15.0 15.0 15.0 15.0 15.0 15.0 15.0 15.0 15.0 15.0 15.0 15.0 15.0 15.0 15.0 15.0 15.0 15.0 15.0 15.0 15.0 15.0 15.0 15.0 15.0